Location: Newark
(3.1475°N, 101.6933°E)
Time: 16:36:59
(UTC+00:00)

OTV 5 (USA 277) - Visible Passes

Search period start: 22 September 2019 00:00
Search period end: 02 October 2019 00:00
Orbit: 295 x 339 km, 54.5° (Epoch: 08 September)

Date Brightness Start Highest point End Pass type
(mag) Time Alt. Az. Time Alt. Az. Time Alt. Az.
23 Sep ? 11:27:56 10° WNW 11:29:56 21° WSW 11:31:58 10° S visible
25 Sep ? 21:44:19 10° S 21:46:26 19° ESE 21:48:34 10° ENE visible
26 Sep ? 22:00:05 41° SW 22:00:55 78° NW 22:03:44 10° NNE visible
27 Sep ? 22:15:48 15° NW 22:15:48 15° NW 22:17:12 10° NNW visible
